Flag for U.S.A. Weather past 2 weeks in Coeur d'Alene, Idaho, U.S.A.

Now
79 °F

Sunny.


Feels Like: 78 °F
Forecast: 50 / 78 °F
Wind: 8 mph from West

Location: Coeur d'Alene Weather Reporting System

Current Time: Jul 28, 2015 at 2:51:53 PM

Latest Report: Jul 28, 2015 at 2:15 PM


Visibility: 10 mi

Pressure: 30.20 "Hg (28.02 "Hg at 655m altitude)

Humidity: 24%

Dew point: 39 °F

Location of Coeur d'AleneLocation

Historic Weather in Coeur d'Alene — Graph

°F

Coeur d'Alene temperature yesterday

Maximum temperature yesterday: 73 °F (at 1:35 PM)
Minimum temperature yesterday: 48 °F (at 5:35 AM)
Average temperature yesterday: 61 °F

Past Weeks' High & Low Weather Summary

 TemperatureHumidityPressure
High91 °F (Jul 19, 2:55 PM)88% (Jul 25, 8:35 PM)30.23 "Hg (Jul 25, 8:35 PM)
Low48 °F (Jul 27, 5:35 AM)10% (Jul 18, 10:15 AM)29.72 "Hg (Jul 22, 12:15 AM)
Average69 °F42%29.94 "Hg
* Reported Jul 13 1:15 PM — Jul 28 1:15 PM, Coeur d'Alene, Weather by CustomWeather, © 2015

Note: Actual official high and low records may vary slightly from our data, if they occured in-between our weather recording intervals... More about our weather records

Advertising

Coeur d'Alene weather history for previous 24 hours

 ConditionsComfort  
Time TempWeatherWind HumidityBarometerVisibility
1:15 PM
Tue, Jul 28
77 °FPassing clouds.14 mph28%30.20 "Hg10 mi
12:55 PM75 °FSunny.9 mph29%30.21 "Hg10 mi
12:35 PM73 °FSunny.3 mph33%30.21 "Hg10 mi
12:15 PM73 °FSunny.6 mph33%30.22 "Hg10 mi
11:55 AM73 °FSunny.8 mph36%30.22 "Hg10 mi
11:35 AM70 °FSunny.8 mph40%30.22 "Hg10 mi
11:15 AM68 °FSunny.8 mph46%30.23 "Hg10 mi
10:55 AM66 °FSunny.7 mph49%30.23 "Hg10 mi
10:35 AM66 °FSunny.9 mph49%30.23 "Hg10 mi
10:15 AM64 °FSunny.10 mph52%30.23 "Hg10 mi
9:55 AM64 °FSunny.10 mph52%30.23 "Hg10 mi
9:35 AM63 °FSunny.8 mph56%30.23 "Hg10 mi
9:15 AM63 °FSunny.10 mph56%30.23 "Hg10 mi
8:55 AM61 °FSunny.10 mph59%30.23 "Hg10 mi
8:35 AM61 °FSunny.9 mph59%30.23 "Hg10 mi
8:15 AM59 °FSunny.12 mph63%30.23 "Hg10 mi
7:55 AM57 °FSunny.9 mph67%30.22 "Hg10 mi
7:35 AM57 °FSunny.10 mph67%30.22 "Hg10 mi
7:15 AM55 °FSunny.12 mph77%30.21 "Hg10 mi
6:55 AM55 °FSunny.12 mph77%30.21 "Hg10 mi
6:35 AM54 °FSunny.10 mph77%30.20 "Hg10 mi
6:15 AM54 °FClear.12 mph77%30.20 "Hg10 mi
5:55 AM54 °FClear.8 mph77%30.19 "Hg10 mi
5:35 AM52 °FClear.9 mph82%30.19 "Hg10 mi
5:15 AM54 °FClear.8 mph77%30.18 "Hg10 mi
4:55 AM54 °FClear.10 mph77%30.18 "Hg10 mi
4:35 AM54 °FClear.10 mph77%30.18 "Hg10 mi
4:15 AM54 °FClear.9 mph77%30.17 "Hg10 mi
3:55 AM54 °FClear.8 mph77%30.17 "Hg10 mi
3:35 AM54 °FClear.9 mph77%30.16 "Hg10 mi
3:15 AM54 °FClear.8 mph77%30.16 "Hg10 mi
2:55 AM54 °FClear.8 mph77%30.15 "Hg10 mi
2:35 AM55 °FClear.10 mph72%30.15 "Hg10 mi
2:15 AM55 °FClear.8 mph72%30.14 "Hg10 mi
1:55 AM55 °FClear.10 mph67%30.14 "Hg10 mi
1:35 AM55 °FClear.8 mph67%30.13 "Hg10 mi
1:15 AM57 °FClear.9 mph63%30.13 "Hg10 mi
12:55 AM57 °FPassing clouds.10 mph63%30.13 "Hg10 mi
12:35 AM57 °FPassing clouds.8 mph67%30.13 "Hg10 mi
12:15 AM57 °FPassing clouds.9 mph67%30.13 "Hg10 mi
11:55 PM
Mon, Jul 27
59 °FMostly cloudy.12 mph63%30.12 "Hg10 mi
11:35 PM59 °FPassing clouds.12 mph59%30.12 "Hg10 mi
11:15 PM57 °FPassing clouds.12 mph63%30.11 "Hg10 mi
10:55 PM61 °FPassing clouds.8 mph55%30.11 "Hg10 mi
10:35 PM61 °FPassing clouds.7 mph55%30.10 "Hg10 mi
10:15 PM61 °FPassing clouds.9 mph55%30.09 "Hg10 mi
9:55 PM63 °FPassing clouds.9 mph56%30.09 "Hg10 mi
9:35 PM63 °FPartly cloudy.8 mph52%30.09 "Hg10 mi
9:15 PM63 °FMore clouds than sun.6 mph49%30.08 "Hg10 mi
8:55 PM63 °FScattered clouds.6 mph49%30.07 "Hg10 mi
8:35 PM63 °FPartly sunny.5 mph52%30.07 "Hg10 mi
8:15 PM63 °FPartly sunny.6 mph59%30.06 "Hg10 mi
7:55 PM66 °FPartly sunny.6 mph40%30.06 "Hg10 mi
7:35 PM66 °FPartly sunny.8 mph40%30.06 "Hg10 mi
7:15 PM68 °FOvercast.9 mph38%30.05 "Hg10 mi
6:55 PM70 °FPartly sunny.8 mph31%30.05 "Hg10 mi
6:35 PM72 °FPartly sunny.7 mph31%30.04 "Hg10 mi
6:15 PM70 °FScattered clouds.7 mph33%30.03 "Hg10 mi
5:55 PM70 °FPassing clouds.8 mph31%30.04 "Hg10 mi
5:35 PM72 °FPartly sunny.12 mph31%30.03 "Hg10 mi
5:15 PM72 °FScattered clouds.13 mph33%30.03 "Hg10 mi
4:55 PM73 °FPassing clouds.12 mph31%30.02 "Hg10 mi
4:35 PM72 °FPassing clouds.7 mph36%30.02 "Hg10 mi
4:15 PM68 °FSunny.8 mph49%30.01 "Hg10 mi
3:55 PM68 °FSunny.5 mph49%30.02 "Hg10 mi
3:35 PM63 °FThundershowers. Sunny.5 mph68%30.02 "Hg10 mi
2:35 PM70 °FThunderstorms. Partly sunny.15 mph31%30.01 "Hg10 mi
2:15 PM72 °FPassing clouds.16 mph33%30.00 "Hg10 mi
Weather by CustomWeather, © 2015

See weather overviewHow to use our weather pages